M I D A S
Marine Information and Data Acquisition System
Tripno 2264 of the Zeeleeuw from 2012-02-13 09:27:11 to 2012-02-13 15:21:38
Back to CruiseResearch ActivitiesStationsMapUnderway DataData graphs

EquipmentUnitsComments
TimeDGPSUTC
LatitudeDGPSDM.mWGS84
LongitudeDGPSDM.mWGS84
SpeedMeteo Stationm/sRelative wind speed
DirectionMeteo StationdegRelative wind direction
TemperatureMeteo Stationdeg CelciusAir temperature
PressureMeteo StationPaAtmospheric pressure
HumidityMeteo Station%Relative humidity
Missing or incorrect values are displayed as -999
Metereological data collected by the RV Zeeleeuw from 2012-02-13 07:31:11 to 2012-02-13 15:31:12
                                                                                    Next 1000 lines
Time Latitude Longitude Speed Direction Temperature Pressure Humidity
2012-02-13 07:31:22 51°13.636 2°56.019 3.5 18 3.6 102700 48
2012-02-13 07:31:27 51°13.636 2°56.019 3.5 75 3.6 102700 48
2012-02-13 07:31:31 51°13.636 2°56.018 4.3 25 3.5 102700 50
2012-02-13 07:31:37 51°13.636 2°56.018 4.8 76 3.5 102700 50
2012-02-13 07:31:42 51°13.636 2°56.018 5.2 24 3.5 102710 48
2012-02-13 07:31:47 51°13.636 2°56.018 5.5 79 3.5 102710 48
2012-02-13 07:31:51 51°13.636 2°56.018 4.1 26 3.5 102710 51
2012-02-13 07:31:57 51°13.636 2°56.019 3.9 77 3.5 102710 51
2012-02-13 07:32:01 51°13.636 2°56.018 4.3 20 3.5 102700 51
2012-02-13 07:32:07 51°13.636 2°56.018 5.6 73 3.5 102700 51
2012-02-13 07:32:11 51°13.635 2°56.018 4 25 3.5 102710 48
2012-02-13 07:32:17 51°13.635 2°56.019 4.1 77 3.5 102710 48
2012-02-13 07:32:22 51°13.635 2°56.019 3.9 20 3.5 102710 51
2012-02-13 07:32:27 51°13.636 2°56.02 1.9 73 3.5 102710 51
2012-02-13 07:32:31 51°13.636 2°56.02 3.5 19 3.5 102710 51
2012-02-13 07:32:37 51°13.636 2°56.02 2.5 73 3.5 102710 51
2012-02-13 07:32:42 51°13.636 2°56.021 3.7 25 3.6 102710 48
2012-02-13 07:32:47 51°13.636 2°56.021 3.4 75 3.6 102710 48
2012-02-13 07:32:51 51°13.636 2°56.021 3.9 26 3.6 102700 50
2012-02-13 07:32:57 51°13.636 2°56.021 2.5 82 3.6 102700 50
2012-02-13 07:33:02 51°13.636 2°56.02 2.3 21 3.6 102700 46
2012-02-13 07:33:07 51°13.636 2°56.02 5.4 80 3.6 102700 46
2012-02-13 07:33:11 51°13.636 2°56.02 6.2 23 3.6 102700 48
2012-02-13 07:33:17 51°13.636 2°56.02 2.8 75 3.6 102700 48
2012-02-13 07:33:22 51°13.636 2°56.02 4.5 27 3.6 102700 48
2012-02-13 07:33:27 51°13.636 2°56.02 4.3 75 3.6 102700 48
2012-02-13 07:33:31 51°13.636 2°56.019 4.3 25 3.6 102710 47
2012-02-13 07:33:37 51°13.636 2°56.02 3.4 74 3.6 102710 47
2012-02-13 07:33:41 51°13.636 2°56.02 4.7 22 3.6 102710 48
2012-02-13 07:33:47 51°13.636 2°56.02 4.3 79 3.6 102710 48
2012-02-13 07:33:51 51°13.636 2°56.02 4.4 24 3.6 102710 50
2012-02-13 07:33:57 51°13.636 2°56.02 3.9 79 3.6 102710 50
2012-02-13 07:34:02 51°13.636 2°56.02 2.2 31 3.6 102700 48
2012-02-13 07:34:07 51°13.636 2°56.02 2.8 80 3.6 102700 48
2012-02-13 07:34:11 51°13.637 2°56.019 3 25 3.6 102710 50
2012-02-13 07:34:17 51°13.636 2°56.02 2.6 76 3.6 102710 50
2012-02-13 07:34:22 51°13.636 2°56.02 5.3 28 3.6 102710 52
2012-02-13 07:34:27 51°13.637 2°56.019 4.9 74 3.6 102710 52
2012-02-13 07:34:31 51°13.636 2°56.019 3.9 24 3.6 102710 48
2012-02-13 07:34:37 51°13.636 2°56.02 4.5 75 3.6 102710 48
2012-02-13 07:34:42 51°13.636 2°56.019 3.8 26 3.6 102710 51
2012-02-13 07:34:47 51°13.636 2°56.02 4.5 76 3.6 102710 51
2012-02-13 07:34:51 51°13.636 2°56.02 3.9 19 3.6 102710 50
2012-02-13 07:34:57 51°13.636 2°56.019 3.2 75 3.6 102710 50
2012-02-13 07:35:02 51°13.636 2°56.02 3.2 20 3.6 102710 51
2012-02-13 07:35:07 51°13.636 2°56.019 2.8 75 3.6 102710 51
2012-02-13 07:35:11 51°13.636 2°56.019 4.1 22 3.6 102710 48
2012-02-13 07:35:17 51°13.636 2°56.019 4.5 75 3.6 102710 48
2012-02-13 07:35:22 51°13.636 2°56.019 4.2 26 3.6 102710 51
2012-02-13 07:35:27 51°13.636 2°56.019 3.4 81 3.6 102710 51
2012-02-13 07:35:31 51°13.636 2°56.019 4.5 25 3.6 102710 48
2012-02-13 07:35:37 51°13.636 2°56.019 5.1 75 3.6 102710 48
2012-02-13 07:35:42 51°13.636 2°56.019 5 25 3.6 102710 47
2012-02-13 07:35:47 51°13.636 2°56.019 4.7 74 3.6 102710 47
2012-02-13 07:35:51 51°13.636 2°56.019 4.7 19 3.6 102710 51
2012-02-13 07:35:57 51°13.636 2°56.019 4.4 76 3.6 102710 51
2012-02-13 07:36:01 51°13.636 2°56.019 4.4 22 3.6 102710 51
2012-02-13 07:36:07 51°13.637 2°56.019 4.8 78 3.6 102710 51
2012-02-13 07:36:11 51°13.637 2°56.019 4.4 20 3.6 102710 47
2012-02-13 07:36:17 51°13.637 2°56.019 3.2 74 3.6 102710 47
2012-02-13 07:36:21 51°13.637 2°56.02 4.6 24 3.6 102710 48
2012-02-13 07:36:27 51°13.637 2°56.02 4.2 79 3.6 102710 48
2012-02-13 07:36:31 51°13.637 2°56.02 5.4 19 3.6 102710 50
2012-02-13 07:36:37 51°13.637 2°56.02 4.8 78 3.6 102710 50
2012-02-13 07:36:42 51°13.637 2°56.02 5.6 18 3.6 102710 48
2012-02-13 07:36:47 51°13.637 2°56.021 5.7 74 3.6 102710 48
2012-02-13 07:36:51 51°13.637 2°56.021 5.4 19 3.6 102720 48
2012-02-13 07:36:57 51°13.637 2°56.02 5.6 75 3.6 102720 48
2012-02-13 07:37:02 51°13.637 2°56.02 2.8 23 3.6 102710 51
2012-02-13 07:37:07 51°13.637 2°56.02 4.4 79 3.6 102710 51
2012-02-13 07:37:11 51°13.637 2°56.021 3.4 24 3.6 102720 51
2012-02-13 07:37:17 51°13.637 2°56.021 2.2 74 3.6 102720 51
2012-02-13 07:37:22 51°13.637 2°56.021 4.1 20 3.6 102720 48
2012-02-13 07:37:27 51°13.637 2°56.021 3.5 76 3.6 102720 48
2012-02-13 07:37:31 51°13.637 2°56.021 4.8 25 3.6 102710 51
2012-02-13 07:37:37 51°13.637 2°56.02 4.9 81 3.6 102710 51
2012-02-13 07:37:42 51°13.637 2°56.02 4 21 3.6 102710 48
2012-02-13 07:37:47 51°13.637 2°56.021 4.3 75 3.6 102710 48
2012-02-13 07:37:51 51°13.637 2°56.021 4.2 26 3.6 102710 51
2012-02-13 07:37:57 51°13.637 2°56.02 3.8 74 3.6 102710 51
2012-02-13 07:38:03 51°13.637 2°56.02 4.2 26 3.6 102720 51
2012-02-13 07:38:08 51°13.637 2°56.02 4.3 75 3.6 102720 51
2012-02-13 07:38:12 51°13.637 2°56.02 4.5 23 3.6 102710 51
2012-02-13 07:38:17 51°13.637 2°56.02 4.2 76 3.6 102710 51
2012-02-13 07:38:22 51°13.637 2°56.019 4.7 22 3.6 102710 48
2012-02-13 07:38:28 51°13.637 2°56.02 4.7 78 3.6 102710 48
2012-02-13 07:38:32 51°13.637 2°56.019 4.1 19 3.6 102720 48
2012-02-13 07:38:37 51°13.637 2°56.019 3.7 79 3.6 102720 48
2012-02-13 07:38:42 51°13.637 2°56.02 3.8 20 3.6 102720 51
2012-02-13 07:38:47 51°13.637 2°56.02 3.3 79 3.6 102720 51
2012-02-13 07:38:52 51°13.637 2°56.019 4.2 20 3.6 102720 48
2012-02-13 07:38:57 51°13.637 2°56.019 4 74 3.6 102720 48
2012-02-13 07:39:02 51°13.636 2°56.019 4 24 3.6 102720 51
2012-02-13 07:39:07 51°13.636 2°56.019 4.3 76 3.6 102720 51
2012-02-13 07:39:12 51°13.637 2°56.019 5.5 18 3.6 102720 51
2012-02-13 07:39:17 51°13.637 2°56.019 5.2 80 3.6 102720 51
2012-02-13 07:39:22 51°13.637 2°56.019 5.2 21 3.6 102720 51
2012-02-13 07:39:27 51°13.637 2°56.019 4.7 79 3.6 102720 51
2012-02-13 07:39:32 51°13.637 2°56.019 4.7 26 3.6 102720 50
2012-02-13 07:39:37 51°13.638 2°56.019 4.1 79 3.6 102720 50
2012-02-13 07:39:42 51°13.638 2°56.019 4.2 25 3.6 102720 51
2012-02-13 07:39:47 51°13.638 2°56.019 4.2 75 3.6 102720 51
2012-02-13 07:39:52 51°13.637 2°56.019 4.6 33 3.6 102720 50
2012-02-13 07:39:57 51°13.637 2°56.019 3.8 74 3.6 102720 50
2012-02-13 07:40:02 51°13.637 2°56.019 3.3 21 3.6 102710 48
2012-02-13 07:40:07 51°13.637 2°56.019 3.7 80 3.6 102710 48
2012-02-13 07:40:12 51°13.637 2°56.019 4 25 3.6 102720 49
2012-02-13 07:40:17 51°13.638 2°56.019 3.1 80 3.6 102720 49
2012-02-13 07:40:22 51°13.637 2°56.019 4.3 26 3.6 102720 50
2012-02-13 07:40:27 51°13.636 2°56.019 4.7 74 3.6 102720 50
2012-02-13 07:40:32 51°13.637 2°56.019 4.3 21 3.5 102720 50
2012-02-13 07:40:37 51°13.636 2°56.019 4 76 3.5 102720 50
2012-02-13 07:40:42 51°13.636 2°56.019 3.3 20 3.5 102720 50
2012-02-13 07:40:47 51°13.637 2°56.019 5.1 73 3.5 102720 50
2012-02-13 07:40:52 51°13.637 2°56.019 4.5 26 3.5 102720 51
2012-02-13 07:40:57 51°13.637 2°56.019 4.1 75 3.5 102720 51
2012-02-13 07:41:02 51°13.637 2°56.019 2.4 18 3.5 102710 48
2012-02-13 07:41:07 51°13.637 2°56.019 3.6 80 3.5 102710 48
2012-02-13 07:41:12 51°13.637 2°56.019 4.8 25 3.5 102710 48
2012-02-13 07:41:17 51°13.637 2°56.019 3.9 79 3.5 102710 48
2012-02-13 07:41:22 51°13.637 2°56.019 2.6 18 3.5 102710 51
2012-02-13 07:41:27 51°13.637 2°56.019 3.4 77 3.5 102710 51
2012-02-13 07:41:32 51°13.637 2°56.019 3.3 25 3.5 102710 49
2012-02-13 07:41:37 51°13.637 2°56.018 3.6 79 3.5 102710 49
2012-02-13 07:41:42 51°13.637 2°56.018 4 19 3.5 102710 48
2012-02-13 07:41:47 51°13.637 2°56.018 4.3 81 3.5 102710 48
2012-02-13 07:41:52 51°13.636 2°56.018 3.5 26 3.5 102710 49
2012-02-13 07:41:57 51°13.636 2°56.018 3.4 78 3.5 102710 49
2012-02-13 07:42:02 51°13.636 2°56.018 3.5 19 3.5 102710 51
2012-02-13 07:42:07 51°13.636 2°56.018 4.9 81 3.5 102710 51
2012-02-13 07:42:12 51°13.636 2°56.018 3.9 19 3.5 102710 48
2012-02-13 07:42:16 51°13.636 2°56.018 2.9 81 3.5 102710 48
2012-02-13 07:42:22 51°13.636 2°56.018 3.5 22 3.5 102710 51
2012-02-13 07:42:27 51°13.635 2°56.018 3.2 81 3.5 102710 51
2012-02-13 07:42:32 51°13.635 2°56.018 3 21 3.5 102710 48
2012-02-13 07:42:36 51°13.635 2°56.018 3.9 75 3.5 102710 48
2012-02-13 07:42:42 51°13.635 2°56.018 4.1 25 3.5 102710 48
2012-02-13 07:42:47 51°13.636 2°56.018 3 74 3.5 102710 48
2012-02-13 07:42:52 51°13.635 2°56.019 2 22 3.5 102710 48
2012-02-13 07:42:57 51°13.635 2°56.019 2.3 75 3.5 102710 48
2012-02-13 07:43:02 51°13.635 2°56.018 3 31 3.5 102710 48
2012-02-13 07:43:07 51°13.636 2°56.018 3.7 80 3.5 102710 48
2012-02-13 07:43:12 51°13.636 2°56.019 4 19 3.5 102710 51
2012-02-13 07:43:17 51°13.636 2°56.019 2.9 79 3.5 102710 51
2012-02-13 07:43:21 51°13.636 2°56.019 2.5 22 3.5 102710 51
2012-02-13 07:43:27 51°13.636 2°56.019 3.4 79 3.5 102710 51
2012-02-13 07:43:32 51°13.636 2°56.019 3.3 25 3.5 102710 48
2012-02-13 07:43:37 51°13.636 2°56.019 4 75 3.5 102710 48
2012-02-13 07:43:41 51°13.636 2°56.019 3.1 21 3.5 102710 49
2012-02-13 07:43:47 51°13.636 2°56.019 4.5 75 3.5 102710 49
2012-02-13 07:43:52 51°13.636 2°56.019 5.4 31 3.5 102710 49
2012-02-13 07:43:57 51°13.637 2°56.019 4.4 74 3.5 102710 49
2012-02-13 07:44:02 51°13.637 2°56.019 4.6 20 3.5 102710 52
2012-02-13 07:44:07 51°13.636 2°56.019 4 76 3.5 102710 52
2012-02-13 07:44:12 51°13.636 2°56.019 5 19 3.5 102710 48
2012-02-13 07:44:17 51°13.635 2°56.019 3.6 78 3.5 102710 48
2012-02-13 07:44:22 51°13.636 2°56.019 3.3 21 3.5 102710 51
2012-02-13 07:44:27 51°13.637 2°56.019 2.9 74 3.5 102710 51
2012-02-13 07:44:32 51°13.637 2°56.019 3.7 19 3.5 102710 48
2012-02-13 07:44:36 51°13.637 2°56.019 3.7 78 3.5 102710 48
2012-02-13 07:44:42 51°13.637 2°56.019 4 19 3.5 102710 48
2012-02-13 07:44:47 51°13.637 2°56.019 4.6 76 3.5 102710 48
2012-02-13 07:44:52 51°13.637 2°56.019 4.4 24 3.5 102710 51
2012-02-13 07:44:57 51°13.637 2°56.019 2.2 75 3.5 102710 51
2012-02-13 07:45:02 51°13.637 2°56.019 5 24 3.5 102710 48
2012-02-13 07:45:07 51°13.637 2°56.019 3.8 74 3.5 102710 48
2012-02-13 07:45:12 51°13.637 2°56.019 4.1 20 3.5 102710 48
2012-02-13 07:45:17 51°13.637 2°56.019 3.9 79 3.5 102710 48
2012-02-13 07:45:22 51°13.637 2°56.019 3.4 36 3.5 102710 51
2012-02-13 07:45:27 51°13.637 2°56.019 3.7 80 3.5 102710 51
2012-02-13 07:45:32 51°13.638 2°56.019 4.3 24 3.5 102710 49
2012-02-13 07:45:37 51°13.638 2°56.019 4.5 78 3.5 102710 49
2012-02-13 07:45:42 51°13.638 2°56.02 3.7 18 3.5 102710 51
2012-02-13 07:45:47 51°13.637 2°56.02 3.2 80 3.5 102710 51
2012-02-13 07:45:52 51°13.638 2°56.019 3.9 19 3.5 102710 49
2012-02-13 07:45:57 51°13.638 2°56.02 2.1 80 3.5 102710 49
2012-02-13 07:46:02 51°13.638 2°56.02 3.2 21 3.5 102710 51
2012-02-13 07:46:07 51°13.638 2°56.02 5.5 79 3.5 102710 51
2012-02-13 07:46:12 51°13.638 2°56.02 4.2 21 3.5 102710 48
2012-02-13 07:46:17 51°13.638 2°56.02 4.8 77 3.5 102710 48
2012-02-13 07:46:22 51°13.638 2°56.02 3.5 36 3.5 102710 49
2012-02-13 07:46:27 51°13.638 2°56.02 3.7 75 3.5 102710 49
2012-02-13 07:46:32 51°13.638 2°56.02 3.7 35 3.5 102710 51
2012-02-13 07:46:37 51°13.638 2°56.02 3.6 80 3.5 102710 51
2012-02-13 07:46:42 51°13.638 2°56.02 3.7 35 3.5 102710 51
2012-02-13 07:46:47 51°13.639 2°56.02 3.5 79 3.5 102710 51
2012-02-13 07:46:52 51°13.639 2°56.02 3.7 37 3.5 102710 48
2012-02-13 07:46:57 51°13.639 2°56.019 3.3 79 3.5 102710 48
2012-02-13 07:47:02 51°13.638 2°56.019 4.7 22 3.5 102710 50
2012-02-13 07:47:07 51°13.638 2°56.02 4 79 3.5 102710 50
2012-02-13 07:47:12 51°13.639 2°56.02 3.6 29 3.5 102710 51
2012-02-13 07:47:16 51°13.639 2°56.02 3.9 80 3.5 102710 51
2012-02-13 07:47:22 51°13.638 2°56.019 3.9 32 3.5 102710 48
2012-02-13 07:47:27 51°13.638 2°56.02 3.8 78 3.5 102710 48
2012-02-13 07:47:32 51°13.638 2°56.02 2.9 31 3.5 102710 48
2012-02-13 07:47:37 51°13.638 2°56.019 2.9 76 3.5 102710 48
2012-02-13 07:47:42 51°13.638 2°56.019 2.8 37 3.4 102710 51
2012-02-13 07:47:47 51°13.638 2°56.02 3.4 79 3.4 102710 51
2012-02-13 07:47:52 51°13.638 2°56.02 3.5 30 3.4 102710 48
2012-02-13 07:47:57 51°13.638 2°56.02 4.2 79 3.4 102710 48
2012-02-13 07:48:02 51°13.638 2°56.02 4.7 37 3.4 102710 48
2012-02-13 07:48:07 51°13.638 2°56.02 4.5 74 3.4 102710 48
2012-02-13 07:48:12 51°13.638 2°56.02 4.2 38 3.4 102710 49
2012-02-13 07:48:17 51°13.637 2°56.019 3.8 79 3.4 102710 49
2012-02-13 07:48:22 51°13.637 2°56.019 3.5 32 3.5 102710 51
2012-02-13 07:48:27 51°13.636 2°56.018 2.9 73 3.5 102710 51
2012-02-13 07:48:32 51°13.636 2°56.018 4.4 20 3.4 102710 50
2012-02-13 07:48:37 51°13.636 2°56.018 4.6 74 3.4 102710 50
2012-02-13 07:48:42 51°13.636 2°56.018 4 36 3.4 102710 51
2012-02-13 07:48:47 51°13.636 2°56.018 3.9 80 3.4 102710 51
2012-02-13 07:48:52 51°13.637 2°56.019 3.6 32 3.4 102710 51
2012-02-13 07:48:57 51°13.636 2°56.018 2.3 73 3.4 102710 51
2012-02-13 07:49:02 51°13.637 2°56.018 4.3 33 3.4 102710 50
2012-02-13 07:49:07 51°13.636 2°56.018 4.1 75 3.4 102710 50
2012-02-13 07:49:12 51°13.636 2°56.018 4.4 39 3.4 102710 51
2012-02-13 07:49:16 51°13.636 2°56.018 4.2 78 3.4 102710 51
2012-02-13 07:49:22 51°13.636 2°56.018 3.9 32 3.4 102710 51
2012-02-13 07:49:27 51°13.636 2°56.018 4.1 79 3.4 102710 51
2012-02-13 07:49:32 51°13.636 2°56.018 3.6 38 3.4 102710 47
2012-02-13 07:49:37 51°13.636 2°56.018 3.6 79 3.4 102710 47
2012-02-13 07:49:42 51°13.636 2°56.018 2.4 29 3.4 102710 51
2012-02-13 07:49:47 51°13.636 2°56.018 3.7 74 3.4 102710 51
2012-02-13 07:49:52 51°13.636 2°56.018 3.8 39 3.4 102710 50
2012-02-13 07:49:57 51°13.635 2°56.018 3.1 75 3.4 102710 50
2012-02-13 07:50:02 51°13.636 2°56.018 3.4 38 3.4 102710 48
2012-02-13 07:50:07 51°13.636 2°56.018 3.6 80 3.4 102710 48
2012-02-13 07:50:12 51°13.636 2°56.017 3.2 35 3.4 102710 48
2012-02-13 07:50:17 51°13.636 2°56.018 3.8 73 3.4 102710 48
2012-02-13 07:50:22 51°13.636 2°56.018 2.8 33 3.4 102710 48
2012-02-13 07:50:27 51°13.636 2°56.018 2.5 73 3.4 102710 48
2012-02-13 07:50:32 51°13.636 2°56.018 2.3 25 3.4 102710 50
2012-02-13 07:50:37 51°13.636 2°56.018 1.1 78 3.4 102710 50
2012-02-13 07:50:42 51°13.636 2°56.018 2 39 3.4 102710 49
2012-02-13 07:50:47 51°13.636 2°56.018 3 80 3.4 102710 49
2012-02-13 07:50:52 51°13.636 2°56.018 3.4 36 3.4 102710 52
2012-02-13 07:50:57 51°13.636 2°56.018 3.2 81 3.4 102710 52
2012-02-13 07:51:02 51°13.636 2°56.018 3.1 38 3.4 102710 52
2012-02-13 07:51:07 51°13.636 2°56.017 3 79 3.4 102710 52
2012-02-13 07:51:12 51°13.636 2°56.017 3.1 32 3.4 102710 48
2012-02-13 07:51:17 51°13.635 2°56.017 4.6 75 3.4 102710 48
2012-02-13 07:51:22 51°13.635 2°56.018 4.2 37 3.4 102700 48
2012-02-13 07:51:27 51°13.636 2°56.017 4.1 80 3.4 102700 48
2012-02-13 07:51:32 51°13.636 2°56.018 3.6 31 3.4 102700 48
2012-02-13 07:51:37 51°13.636 2°56.018 2.7 74 3.4 102700 48
2012-02-13 07:51:42 51°13.636 2°56.018 2 33 3.4 102700 51
2012-02-13 07:51:47 51°13.636 2°56.018 0.9 79 3.4 102700 51
2012-02-13 07:51:52 51°13.636 2°56.018 3 30 3.4 102700 49
2012-02-13 07:51:57 51°13.636 2°56.018 4.2 74 3.4 102700 49
2012-02-13 07:52:02 51°13.636 2°56.018 4.3 36 3.4 102700 48
2012-02-13 07:52:07 51°13.636 2°56.018 3.3 75 3.4 102700 48
2012-02-13 07:52:12 51°13.636 2°56.019 2.8 36 3.4 102700 51
2012-02-13 07:52:17 51°13.636 2°56.018 3.5 74 3.4 102700 51
2012-02-13 07:52:22 51°13.635 2°56.018 3.3 32 3.4 102700 50
2012-02-13 07:52:27 51°13.636 2°56.018 4.1 74 3.4 102700 50
2012-02-13 07:52:32 51°13.635 2°56.018 3.6 32 3.4 102700 48
2012-02-13 07:52:37 51°13.635 2°56.019 3.2 80 3.4 102700 48
2012-02-13 07:52:42 51°13.636 2°56.019 2.5 35 3.4 102700 49
2012-02-13 07:52:47 51°13.635 2°56.018 3.1 82 3.4 102700 49
2012-02-13 07:52:52 51°13.636 2°56.018 4.8 20 3.4 102700 52
2012-02-13 07:52:57 51°13.636 2°56.018 3.4 79 3.4 102700 52
2012-02-13 07:53:02 51°13.636 2°56.018 4.6 32 3.4 102700 52
2012-02-13 07:53:07 51°13.636 2°56.019 4.1 77 3.4 102700 52
2012-02-13 07:53:12 51°13.635 2°56.018 4 32 3.4 102700 48
2012-02-13 07:53:17 51°13.635 2°56.019 3.5 81 3.4 102700 48
2012-02-13 07:53:22 51°13.635 2°56.019 2.4 37 3.4 102710 50
2012-02-13 07:53:27 51°13.635 2°56.019 2 73 3.4 102710 50
2012-02-13 07:53:32 51°13.635 2°56.019 2.2 31 3.4 102700 52
2012-02-13 07:53:37 51°13.636 2°56.019 3.9 78 3.4 102700 52
2012-02-13 07:53:42 51°13.636 2°56.019 3.7 38 3.4 102700 49
2012-02-13 07:53:47 51°13.636 2°56.019 4 76 3.4 102700 49
2012-02-13 07:53:52 51°13.636 2°56.019 3.8 34 3.4 102700 52
2012-02-13 07:53:57 51°13.635 2°56.019 3.3 74 3.4 102700 52
2012-02-13 07:54:02 51°13.635 2°56.019 3 26 3.4 102700 51
2012-02-13 07:54:07 51°13.636 2°56.019 3.4 74 3.4 102700 51
2012-02-13 07:54:12 51°13.636 2°56.018 1.6 32 3.4 102700 51
2012-02-13 07:54:17 51°13.636 2°56.018 3 79 3.4 102700 51
2012-02-13 07:54:22 51°13.637 2°56.018 4.6 26 3.4 102710 49
2012-02-13 07:54:27 51°13.637 2°56.018 2.8 74 3.4 102710 49
2012-02-13 07:54:32 51°13.636 2°56.018 3.9 34 3.4 102710 52
2012-02-13 07:54:37 51°13.636 2°56.018 2.6 73 3.4 102710 52
2012-02-13 07:54:42 51°13.636 2°56.018 3.1 36 3.4 102710 52
2012-02-13 07:54:47 51°13.636 2°56.018 3.9 74 3.4 102710 52
2012-02-13 07:54:52 51°13.636 2°56.018 2.6 26 3.4 102710 49
2012-02-13 07:54:57 51°13.636 2°56.018 2.8 76 3.4 102710 49
2012-02-13 07:55:02 51°13.637 2°56.018 4 34 3.4 102710 52
2012-02-13 07:55:07 51°13.638 2°56.018 3.6 81 3.4 102710 52
2012-02-13 07:55:12 51°13.637 2°56.018 4 32 3.4 102710 51
2012-02-13 07:55:17 51°13.637 2°56.018 3 77 3.4 102710 51
2012-02-13 07:55:22 51°13.637 2°56.018 3 35 3.4 102710 48
2012-02-13 07:55:27 51°13.637 2°56.018 2.9 77 3.4 102710 48
2012-02-13 07:55:32 51°13.637 2°56.018 3 37 3.4 102710 50
2012-02-13 07:55:37 51°13.637 2°56.018 3.7 76 3.4 102710 50
2012-02-13 07:55:42 51°13.637 2°56.019 2.2 33 3.4 102710 48
2012-02-13 07:55:47 51°13.637 2°56.019 3.3 76 3.4 102710 48
2012-02-13 07:55:52 51°13.637 2°56.018 2.8 39 3.4 102710 51
2012-02-13 07:55:57 51°13.637 2°56.018 3.1 77 3.4 102710 51
2012-02-13 07:56:02 51°13.637 2°56.018 4.5 26 3.4 102710 50
2012-02-13 07:56:07 51°13.637 2°56.018 5 77 3.4 102710 50
2012-02-13 07:56:12 51°13.637 2°56.018 4.3 32 3.4 102710 48
2012-02-13 07:56:17 51°13.637 2°56.018 3.9 81 3.4 102710 48
2012-02-13 07:56:22 51°13.637 2°56.018 3.7 30 3.4 102710 50
2012-02-13 07:56:27 51°13.636 2°56.018 3.4 75 3.4 102710 50
2012-02-13 07:56:32 51°13.637 2°56.018 3.8 31 3.4 102710 51
2012-02-13 07:56:37 51°13.637 2°56.018 2.9 78 3.4 102710 51
2012-02-13 07:56:42 51°13.637 2°56.018 3.1 35 3.4 102710 48
2012-02-13 07:56:47 51°13.637 2°56.018 3.5 81 3.4 102710 48
2012-02-13 07:56:52 51°13.637 2°56.018 3.3 38 3.4 102710 52
2012-02-13 07:56:57 51°13.637 2°56.018 2.6 81 3.4 102710 52
2012-02-13 07:57:02 51°13.637 2°56.017 3.5 35 3.4 102710 49
2012-02-13 07:57:07 51°13.636 2°56.017 4.1 77 3.4 102710 49
2012-02-13 07:57:12 51°13.636 2°56.018 3.9 31 3.4 102710 48
2012-02-13 07:57:17 51°13.637 2°56.018 3.4 78 3.4 102710 48
2012-02-13 07:57:22 51°13.637 2°56.017 3.4 37 3.3 102710 51
2012-02-13 07:57:27 51°13.636 2°56.017 3.3 79 3.3 102710 51
2012-02-13 07:57:32 51°13.636 2°56.017 2.8 27 3.4 102720 47
2012-02-13 07:57:37 51°13.636 2°56.017 3.1 78 3.4 102720 47
2012-02-13 07:57:42 51°13.636 2°56.018 2.7 33 3.3 102720 52
2012-02-13 07:57:47 51°13.636 2°56.017 3.5 73 3.3 102720 52
2012-02-13 07:57:52 51°13.637 2°56.017 2.7 38 3.3 102720 48
2012-02-13 07:57:57 51°13.636 2°56.018 3 80 3.3 102720 48
2012-02-13 07:58:02 51°13.636 2°56.018 3.2 32 3.3 102710 52
2012-02-13 07:58:07 51°13.636 2°56.018 3.1 80 3.3 102710 52
2012-02-13 07:58:12 51°13.636 2°56.018 2.9 30 3.3 102710 52
2012-02-13 07:58:17 51°13.636 2°56.018 2.9 75 3.3 102710 52
2012-02-13 07:58:22 51°13.636 2°56.018 2.4 33 3.3 102710 52
2012-02-13 07:58:27 51°13.637 2°56.018 2.9 82 3.3 102710 52
2012-02-13 07:58:32 51°13.637 2°56.018 3.6 36 3.3 102710 52
2012-02-13 07:58:37 51°13.637 2°56.018 3.8 76 3.3 102710 52
2012-02-13 07:58:42 51°13.637 2°56.018 2.7 36 3.3 102710 48
2012-02-13 07:58:47 51°13.637 2°56.018 2.9 79 3.3 102710 48
2012-02-13 07:58:52 51°13.637 2°56.018 3.4 30 3.3 102710 48
2012-02-13 07:58:57 51°13.637 2°56.018 3.4 81 3.3 102710 48
2012-02-13 07:59:02 51°13.637 2°56.018 3.7 32 3.3 102710 52
2012-02-13 07:59:07 51°13.637 2°56.018 2.4 81 3.3 102710 52
2012-02-13 07:59:12 51°13.637 2°56.018 2.8 36 3.3 102710 51
2012-02-13 07:59:17 51°13.637 2°56.019 4.1 75 3.3 102710 51
2012-02-13 07:59:22 51°13.637 2°56.019 3.8 37 3.3 102710 50
2012-02-13 07:59:27 51°13.636 2°56.019 3 79 3.3 102710 50
2012-02-13 07:59:32 51°13.636 2°56.018 3.5 19 3.3 102710 52
2012-02-13 07:59:37 51°13.636 2°56.018 3.8 80 3.3 102710 52
2012-02-13 07:59:42 51°13.636 2°56.019 3.3 30 3.3 102710 49
2012-02-13 07:59:47 51°13.636 2°56.019 3.2 74 3.3 102710 49
2012-02-13 07:59:52 51°13.636 2°56.019 4 27 3.3 102710 48
2012-02-13 07:59:57 51°13.636 2°56.019 3.6 77 3.3 102710 48
2012-02-13 08:00:02 51°13.636 2°56.019 2.6 32 3.3 102710 52
2012-02-13 08:00:07 51°13.636 2°56.019 2.9 76 3.3 102710 52
2012-02-13 08:00:12 51°13.636 2°56.019 2.9 39 3.3 102700 51
2012-02-13 08:00:17 51°13.636 2°56.019 2.8 75 3.3 102700 51
2012-02-13 08:00:22 51°13.635 2°56.019 2.3 38 3.3 102700 51
2012-02-13 08:00:27 51°13.635 2°56.019 3.7 80 3.3 102700 51
2012-02-13 08:00:32 51°13.635 2°56.019 3.4 37 3.3 102700 48
2012-02-13 08:00:36 51°13.636 2°56.019 3.8 75 3.3 102700 48
2012-02-13 08:00:42 51°13.636 2°56.019 3.4 35 3.3 102700 49
2012-02-13 08:00:47 51°13.636 2°56.019 3.2 74 3.3 102700 49
2012-02-13 08:00:52 51°13.635 2°56.019 3.3 31 3.3 102700 48
2012-02-13 08:00:57 51°13.635 2°56.019 3.4 76 3.3 102700 48
2012-02-13 08:01:02 51°13.635 2°56.019 3.6 21 3.3 102700 52
2012-02-13 08:01:07 51°13.635 2°56.019 2.7 79 3.3 102700 52
2012-02-13 08:01:12 51°13.635 2°56.019 2.5 37 3.3 102700 49
2012-02-13 08:01:17 51°13.635 2°56.019 3.7 81 3.3 102700 49
2012-02-13 08:01:22 51°13.635 2°56.019 3.2 36 3.3 102700 52
2012-02-13 08:01:27 51°13.635 2°56.019 2.7 74 3.3 102700 52
2012-02-13 08:01:32 51°13.635 2°56.019 3.8 33 3.3 102700 52
2012-02-13 08:01:37 51°13.635 2°56.019 3.6 80 3.3 102700 52
2012-02-13 08:01:42 51°13.636 2°56.018 4 32 3.3 102700 48
2012-02-13 08:01:47 51°13.636 2°56.019 3.8 78 3.3 102700 48
2012-02-13 08:01:52 51°13.636 2°56.019 3.7 38 3.3 102700 49
2012-02-13 08:01:56 51°13.636 2°56.019 3.1 75 3.3 102700 49
2012-02-13 08:02:03 51°13.637 2°56.019 3.3 30 3.3 102700 50
2012-02-13 08:02:07 51°13.637 2°56.019 3.2 76 3.3 102700 50
2012-02-13 08:02:12 51°13.637 2°56.019 2.5 21 3.3 102700 49
2012-02-13 08:02:17 51°13.636 2°56.019 3.1 82 3.3 102700 49
2012-02-13 08:02:22 51°13.636 2°56.019 2.9 37 3.3 102700 49
2012-02-13 08:02:27 51°13.636 2°56.019 3 75 3.3 102700 49
2012-02-13 08:02:32 51°13.636 2°56.018 3.6 18 3.3 102700 49
2012-02-13 08:02:37 51°13.637 2°56.018 3.2 79 3.3 102700 49
2012-02-13 08:02:42 51°13.637 2°56.018 3.6 30 3.3 102700 49
2012-02-13 08:02:47 51°13.636 2°56.018 3.8 72 3.3 102700 49
2012-02-13 08:02:53 51°13.637 2°56.018 3.5 38 3.3 102700 47
2012-02-13 08:02:57 51°13.636 2°56.018 3.3 76 3.3 102700 47
2012-02-13 08:03:01 51°13.636 2°56.018 3 20 3.3 102700 49
2012-02-13 08:03:07 51°13.636 2°56.018 3 74 3.3 102700 49
2012-02-13 08:03:12 51°13.636 2°56.018 4 38 3.3 102700 52
2012-02-13 08:03:17 51°13.636 2°56.018 4.1 73 3.3 102700 52
2012-02-13 08:03:22 51°13.635 2°56.018 3.2 20 3.3 102700 50
2012-02-13 08:03:27 51°13.635 2°56.018 3.7 75 3.3 102700 50
2012-02-13 08:03:32 51°13.635 2°56.018 3.3 25 3.3 102700 49
2012-02-13 08:03:37 51°13.635 2°56.018 3.2 80 3.3 102700 49
2012-02-13 08:03:42 51°13.635 2°56.018 3.9 32 3.3 102700 48
2012-02-13 08:03:47 51°13.635 2°56.018 3.8 74 3.3 102700 48
2012-02-13 08:03:52 51°13.635 2°56.018 4.1 27 3.3 102700 52
2012-02-13 08:03:57 51°13.635 2°56.018 3.9 73 3.3 102700 52
2012-02-13 08:04:02 51°13.635 2°56.017 3.4 20 3.3 102710 49
2012-02-13 08:04:07 51°13.635 2°56.018 3.7 79 3.3 102710 49
2012-02-13 08:04:12 51°13.635 2°56.018 3.5 25 3.3 102710 49
2012-02-13 08:04:17 51°13.635 2°56.018 2.9 78 3.3 102710 49
2012-02-13 08:04:22 51°13.635 2°56.019 5.5 20 3.3 102700 52
2012-02-13 08:04:26 51°13.635 2°56.019 2.1 81 3.3 102700 52
2012-02-13 08:04:31 51°13.636 2°56.019 3.2 31 3.3 102710 51
2012-02-13 08:04:37 51°13.636 2°56.018 3 77 3.3 102710 51
2012-02-13 08:04:42 51°13.635 2°56.018 3.4 21 3.3 102710 49
2012-02-13 08:04:47 51°13.635 2°56.018 3.4 73 3.3 102710 49
2012-02-13 08:04:52 51°13.636 2°56.018 2.4 38 3.3 102710 48
2012-02-13 08:04:58 51°13.636 2°56.018 3.4 79 3.3 102710 48
2012-02-13 08:05:02 51°13.636 2°56.018 3.5 19 3.3 102710 48
2012-02-13 08:05:07 51°13.636 2°56.018 3.7 76 3.3 102710 48
2012-02-13 08:05:12 51°13.636 2°56.018 3.6 34 3.3 102710 51
2012-02-13 08:05:17 51°13.636 2°56.018 2.7 78 3.3 102710 51
2012-02-13 08:05:22 51°13.635 2°56.018 3.2 25 3.3 102710 52
2012-02-13 08:05:27 51°13.635 2°56.018 4.6 81 3.3 102710 52
2012-02-13 08:05:31 51°13.635 2°56.018 3.8 19 3.3 102710 49
2012-02-13 08:05:36 51°13.635 2°56.019 3 75 3.3 102710 49
2012-02-13 08:05:42 51°13.635 2°56.018 3.3 37 3.2 102700 51
2012-02-13 08:05:48 51°13.636 2°56.018 3.6 73 3.2 102700 51
2012-02-13 08:05:52 51°13.636 2°56.018 3.1 18 3.2 102700 49
2012-02-13 08:05:57 51°13.636 2°56.019 4.1 80 3.2 102700 49
2012-02-13 08:06:02 51°13.636 2°56.018 2.6 18 3.2 102700 49
2012-02-13 08:06:07 51°13.636 2°56.018 3.6 73 3.2 102700 49
2012-02-13 08:06:12 51°13.636 2°56.018 4.1 30 3.2 102700 51
2012-02-13 08:06:17 51°13.636 2°56.018 3.4 80 3.2 102700 51
2012-02-13 08:06:22 51°13.636 2°56.019 3.7 30 3.2 102710 49
2012-02-13 08:06:27 51°13.636 2°56.019 4.3 75 3.2 102710 49
2012-02-13 08:06:33 51°13.636 2°56.018 1.8 31 3.2 102700 50
2012-02-13 08:06:37 51°13.636 2°56.018 4 78 3.2 102700 50
2012-02-13 08:06:42 51°13.636 2°56.018 3.4 36 3.2 102700 48
2012-02-13 08:06:47 51°13.636 2°56.019 3.1 80 3.2 102700 48
2012-02-13 08:06:52 51°13.635 2°56.019 4 35 3.2 102700 48
2012-02-13 08:06:57 51°13.636 2°56.019 3.7 80 3.2 102700 48
2012-02-13 08:07:02 51°13.636 2°56.018 4 33 3.2 102710 49
2012-02-13 08:07:07 51°13.636 2°56.018 3.4 75 3.2 102710 49
2012-02-13 08:07:12 51°13.636 2°56.018 2.1 38 3.2 102700 48
2012-02-13 08:07:17 51°13.636 2°56.019 3.9 80 3.2 102700 48
2012-02-13 08:07:22 51°13.636 2°56.019 3.4 37 3.2 102700 51
2012-02-13 08:07:27 51°13.636 2°56.019 3.5 80 3.2 102700 51
2012-02-13 08:07:32 51°13.636 2°56.018 4.1 37 3.2 102700 48
2012-02-13 08:07:37 51°13.636 2°56.018 3.9 74 3.2 102700 48
2012-02-13 08:07:42 51°13.636 2°56.019 3.1 26 3.2 102700 52
2012-02-13 08:07:47 51°13.636 2°56.019 3.6 76 3.2 102700 52
2012-02-13 08:07:52 51°13.636 2°56.018 4 36 3.2 102700 48
2012-02-13 08:07:57 51°13.636 2°56.019 3.2 74 3.2 102700 48
2012-02-13 08:08:02 51°13.636 2°56.019 3.1 36 3.2 102700 48
2012-02-13 08:08:07 51°13.636 2°56.019 2.9 79 3.2 102700 48
2012-02-13 08:08:12 51°13.636 2°56.019 3.7 20 3.2 102700 48
2012-02-13 08:08:17 51°13.636 2°56.019 4.1 75 3.2 102700 48
2012-02-13 08:08:22 51°13.636 2°56.019 3.5 32 3.2 102700 50
2012-02-13 08:08:27 51°13.636 2°56.019 3.7 81 3.2 102700 50
2012-02-13 08:08:32 51°13.636 2°56.019 2.6 21 3.2 102700 49
2012-02-13 08:08:37 51°13.636 2°56.019 3 81 3.2 102700 49
2012-02-13 08:08:42 51°13.636 2°56.018 3.5 39 3.2 102700 48
2012-02-13 08:08:47 51°13.636 2°56.018 3.9 77 3.2 102700 48
2012-02-13 08:08:52 51°13.636 2°56.018 4.2 24 3.2 102700 48
2012-02-13 08:08:57 51°13.636 2°56.018 2.5 80 3.2 102700 48
2012-02-13 08:09:02 51°13.636 2°56.018 3.9 37 3.2 102700 50
2012-02-13 08:09:07 51°13.636 2°56.018 4.2 76 3.2 102700 50
2012-02-13 08:09:12 51°13.636 2°56.019 4.1 34 3.2 102700 49
2012-02-13 08:09:17 51°13.636 2°56.019 3.6 76 3.2 102700 49
2012-02-13 08:09:22 51°13.636 2°56.019 3.3 31 3.2 102700 49
2012-02-13 08:09:27 51°13.636 2°56.019 3.9 73 3.2 102700 49
2012-02-13 08:09:32 51°13.637 2°56.019 4.1 37 3.2 102700 51
2012-02-13 08:09:37 51°13.637 2°56.019 4.1 75 3.2 102700 51
2012-02-13 08:09:42 51°13.636 2°56.019 3.2 20 3.2 102700 52
2012-02-13 08:09:47 51°13.636 2°56.019 4.2 74 3.2 102700 52
2012-02-13 08:09:52 51°13.637 2°56.02 2.7 33 3.2 102700 52
2012-02-13 08:09:57 51°13.637 2°56.019 4.1 80 3.2 102700 52
2012-02-13 08:10:02 51°13.637 2°56.019 2.6 25 3.1 102700 51
2012-02-13 08:10:07 51°13.637 2°56.019 3.1 74 3.1 102700 51
2012-02-13 08:10:12 51°13.637 2°56.019 3.4 33 3.1 102700 48
2012-02-13 08:10:17 51°13.637 2°56.019 2.8 74 3.1 102700 48
2012-02-13 08:10:21 51°13.637 2°56.018 2.5 38 3.1 102700 48
2012-02-13 08:10:27 51°13.636 2°56.019 4 76 3.1 102700 48
2012-02-13 08:10:32 51°13.636 2°56.02 4.3 32 3.1 102700 49
2012-02-13 08:10:37 51°13.637 2°56.02 4.6 75 3.1 102700 49
2012-02-13 08:10:41 51°13.636 2°56.02 3.4 38 3.1 102700 50
2012-02-13 08:10:47 51°13.636 2°56.019 4 75 3.1 102700 50
2012-02-13 08:10:52 51°13.636 2°56.019 4.2 31 3.1 102700 47
2012-02-13 08:10:58 51°13.637 2°56.018 3.3 73 3.1 102700 47
2012-02-13 08:11:02 51°13.636 2°56.018 3.6 25 3.2 102700 50
2012-02-13 08:11:07 51°13.637 2°56.018 3.5 75 3.2 102700 50
2012-02-13 08:11:12 51°13.636 2°56.018 3.6 36 3.1 102700 48
2012-02-13 08:11:18 51°13.636 2°56.019 4 74 3.1 102700 48
2012-02-13 08:11:22 51°13.636 2°56.019 3.9 20 3.1 102700 52
2012-02-13 08:11:28 51°13.637 2°56.018 3.8 75 3.1 102700 52
2012-02-13 08:11:32 51°13.636 2°56.018 3.6 31 3.1 102700 52
2012-02-13 08:11:38 51°13.637 2°56.018 3.8 81 3.1 102700 52
2012-02-13 08:11:42 51°13.637 2°56.018 4.2 21 3.1 102700 52
2012-02-13 08:11:48 51°13.637 2°56.018 3.3 74 3.1 102700 52
2012-02-13 08:11:53 51°13.637 2°56.018 3.7 29 3.1 102700 48
2012-02-13 08:11:58 51°13.636 2°56.018 4.2 75 3.1 102700 48
2012-02-13 08:12:02 51°13.636 2°56.019 4.6 25 3.1 102700 52
2012-02-13 08:12:08 51°13.636 2°56.019 3.4 77 3.1 102700 52
2012-02-13 08:12:12 51°13.637 2°56.019 2.8 36 3.2 102700 52
2012-02-13 08:12:17 51°13.636 2°56.019 3.7 81 3.2 102700 52
2012-02-13 08:12:22 51°13.636 2°56.019 3.5 36 3.2 102700 49
2012-02-13 08:12:27 51°13.637 2°56.019 2.9 76 3.2 102700 49
2012-02-13 08:12:32 51°13.637 2°56.019 4.5 27 3.1 102700 52
2012-02-13 08:12:37 51°13.637 2°56.019 3.4 76 3.1 102700 52
2012-02-13 08:12:42 51°13.637 2°56.019 3.6 32 3.1 102700 49
2012-02-13 08:12:48 51°13.637 2°56.019 3.5 77 3.1 102700 49
2012-02-13 08:12:52 51°13.637 2°56.019 3.2 20 3.1 102700 48
2012-02-13 08:12:57 51°13.636 2°56.019 3.1 76 3.1 102700 48
2012-02-13 08:13:02 51°13.636 2°56.019 3.6 31 3.1 102700 49
2012-02-13 08:13:07 51°13.636 2°56.019 4.8 74 3.1 102700 49
2012-02-13 08:13:12 51°13.636 2°56.019 4.5 27 3.1 102700 48
2012-02-13 08:13:17 51°13.636 2°56.019 5 73 3.1 102700 48
2012-02-13 08:13:22 51°13.636 2°56.019 5 34 3.1 102700 49
2012-02-13 08:13:27 51°13.637 2°56.019 2.8 76 3.1 102700 49
2012-02-13 08:13:33 51°13.637 2°56.019 3.5 25 3.1 102700 50
2012-02-13 08:13:37 51°13.636 2°56.019 4.2 74 3.1 102700 50
2012-02-13 08:13:42 51°13.637 2°56.019 4 35 3.1 102700 49
2012-02-13 08:13:47 51°13.637 2°56.018 4.5 74 3.1 102700 49
2012-02-13 08:13:52 51°13.637 2°56.019 4.4 37 3.1 102700 50
2012-02-13 08:13:57 51°13.636 2°56.018 4.3 75 3.1 102700 50
2012-02-13 08:14:02 51°13.636 2°56.018 3.8 20 3.1 102700 52
2012-02-13 08:14:07 51°13.636 2°56.019 4.8 73 3.1 102700 52
2012-02-13 08:14:12 51°13.636 2°56.018 3.7 34 3.1 102700 52
2012-02-13 08:14:17 51°13.636 2°56.019 4 79 3.1 102700 52
2012-02-13 08:14:22 51°13.636 2°56.019 3.9 19 3.2 102700 49
2012-02-13 08:14:27 51°13.636 2°56.018 3.4 78 3.2 102700 49
2012-02-13 08:14:32 51°13.636 2°56.018 3.2 27 3.1 102700 48
2012-02-13 08:14:37 51°13.636 2°56.018 3.3 79 3.1 102700 48
2012-02-13 08:14:42 51°13.636 2°56.018 4.2 39 3.1 102700 50
2012-02-13 08:14:47 51°13.636 2°56.018 4.2 78 3.1 102700 50
2012-02-13 08:14:52 51°13.636 2°56.017 5 20 3.2 102700 52
2012-02-13 08:14:57 51°13.636 2°56.018 4.3 79 3.2 102700 52
2012-02-13 08:15:02 51°13.636 2°56.018 4 23 3.1 102700 51
2012-02-13 08:15:07 51°13.636 2°56.018 4.3 79 3.1 102700 51
2012-02-13 08:15:12 51°13.636 2°56.018 3.9 19 3.2 102700 52
2012-02-13 08:15:17 51°13.636 2°56.018 3.7 79 3.2 102700 52
2012-02-13 08:15:22 51°13.636 2°56.019 4.1 25 3.2 102700 49
2012-02-13 08:15:27 51°13.636 2°56.019 3.6 80 3.2 102700 49
2012-02-13 08:15:32 51°13.636 2°56.018 4.3 27 3.2 102700 50
2012-02-13 08:15:37 51°13.636 2°56.019 3.2 74 3.2 102700 50
2012-02-13 08:15:42 51°13.636 2°56.019 3 34 3.2 102700 49
2012-02-13 08:15:47 51°13.636 2°56.019 3 77 3.2 102700 49
2012-02-13 08:15:52 51°13.636 2°56.019 3.5 36 3.2 102700 50
2012-02-13 08:15:57 51°13.637 2°56.019 2.4 78 3.2 102700 50
2012-02-13 08:16:02 51°13.636 2°56.018 2.7 25 3.1 102700 48
2012-02-13 08:16:07 51°13.637 2°56.018 3.1 73 3.1 102700 48
2012-02-13 08:16:12 51°13.637 2°56.019 2.3 35 3.1 102700 48
2012-02-13 08:16:17 51°13.637 2°56.018 3.1 74 3.1 102700 48
2012-02-13 08:16:22 51°13.636 2°56.018 3.5 27 3.1 102700 50
2012-02-13 08:16:27 51°13.636 2°56.019 3.7 77 3.1 102700 50
2012-02-13 08:16:32 51°13.636 2°56.019 2.6 21 3.1 102700 48
2012-02-13 08:16:37 51°13.636 2°56.019 3.8 80 3.1 102700 48
2012-02-13 08:16:42 51°13.636 2°56.018 3.1 24 3.1 102700 51
2012-02-13 08:16:47 51°13.636 2°56.018 3.7 76 3.1 102700 51
2012-02-13 08:16:52 51°13.636 2°56.018 3.5 31 3.1 102700 48
2012-02-13 08:16:57 51°13.636 2°56.018 2.3 76 3.1 102700 48
2012-02-13 08:17:02 51°13.636 2°56.018 3.6 38 3.1 102700 49
2012-02-13 08:17:07 51°13.636 2°56.018 3.3 74 3.1 102700 49
2012-02-13 08:17:12 51°13.636 2°56.019 3.1 30 3.1 102700 49
2012-02-13 08:17:17 51°13.636 2°56.019 2.9 76 3.1 102700 49
2012-02-13 08:17:22 51°13.636 2°56.019 2 38 3.1 102700 48
2012-02-13 08:17:27 51°13.636 2°56.018 3.7 79 3.1 102700 48
2012-02-13 08:17:32 51°13.636 2°56.018 3 19 3.1 102700 49
2012-02-13 08:17:37 51°13.636 2°56.018 3 74 3.1 102700 49
2012-02-13 08:17:42 51°13.636 2°56.019 3.3 32 3.1 102700 48
2012-02-13 08:17:46 51°13.636 2°56.019 4.8 81 3.1 102700 48
2012-02-13 08:17:52 51°13.636 2°56.018 2.9 21 3.1 102700 49
2012-02-13 08:17:58 51°13.636 2°56.018 3.1 81 3.1 102700 49
2012-02-13 08:18:02 51°13.636 2°56.018 3.2 38 3.1 102700 52
2012-02-13 08:18:07 51°13.636 2°56.018 2.7 73 3.1 102700 52
2012-02-13 08:18:12 51°13.636 2°56.018 3.1 35 3.1 102690 52
2012-02-13 08:18:17 51°13.636 2°56.018 3 78 3.1 102690 52
2012-02-13 08:18:22 51°13.636 2°56.019 3.6 25 3.1 102690 49
2012-02-13 08:18:26 51°13.636 2°56.019 4 75 3.1 102690 49
2012-02-13 08:18:31 51°13.636 2°56.018 3.7 33 3.1 102700 49
2012-02-13 08:18:38 51°13.636 2°56.018 4.9 76 3.1 102700 49
2012-02-13 08:18:43 51°13.636 2°56.018 4.1 31 3.1 102690 50
2012-02-13 08:18:47 51°13.636 2°56.018 3.3 75 3.1 102690 50
2012-02-13 08:18:52 51°13.636 2°56.018 3.6 38 3.1 102690 51
2012-02-13 08:18:57 51°13.636 2°56.017 4.6 75 3.1 102690 51
2012-02-13 08:19:02 51°13.636 2°56.017 4.8 31 3.2 102690 49
2012-02-13 08:19:07 51°13.636 2°56.017 4.8 74 3.2 102690 49
2012-02-13 08:19:12 51°13.636 2°56.018 3.6 25 3.2 102690 50
2012-02-13 08:19:18 51°13.636 2°56.018 3.4 74 3.2 102690 50
2012-02-13 08:19:23 51°13.636 2°56.018 4 18 3.2 102690 49
2012-02-13 08:19:27 51°13.636 2°56.018 3.8 75 3.2 102690 49
2012-02-13 08:19:32 51°13.636 2°56.019 3.8 26 3.2 102690 52
2012-02-13 08:19:38 51°13.636 2°56.019 3.6 79 3.2 102690 52
2012-02-13 08:19:42 51°13.636 2°56.018 3.7 32 3.2 102690 51
2012-02-13 08:19:47 51°13.636 2°56.018 3.2 79 3.2 102690 51
2012-02-13 08:19:52 51°13.636 2°56.019 4.2 24 3.1 102680 49
2012-02-13 08:19:58 51°13.636 2°56.019 4.8 80 3.1 102680 49
2012-02-13 08:20:03 51°13.636 2°56.019 4.4 38 3.1 102680 48
2012-02-13 08:20:07 51°13.636 2°56.018 5 75 3.1 102680 48
2012-02-13 08:20:12 51°13.636 2°56.019 4.7 32 3.1 102680 49
2012-02-13 08:20:18 51°13.636 2°56.018 4 75 3.1 102680 49
2012-02-13 08:20:23 51°13.636 2°56.019 4.9 33 3.2 102680 51
2012-02-13 08:20:27 51°13.636 2°56.018 3.5 79 3.2 102680 51
2012-02-13 08:20:32 51°13.636 2°56.018 4.5 37 3.2 102680 49
2012-02-13 08:20:38 51°13.636 2°56.019 4.7 79 3.2 102680 49
2012-02-13 08:20:43 51°13.636 2°56.019 3.4 33 3.2 102680 48
2012-02-13 08:20:47 51°13.636 2°56.019 3.8 76 3.2 102680 48
2012-02-13 08:20:52 51°13.636 2°56.019 4 32 3.2 102680 52
2012-02-13 08:20:58 51°13.636 2°56.019 3.6 81 3.2 102680 52
2012-02-13 08:21:03 51°13.636 2°56.018 3 32 3.2 102670 48
2012-02-13 08:21:07 51°13.636 2°56.019 2.9 73 3.2 102670 48
2012-02-13 08:21:12 51°13.636 2°56.018 3.5 34 3.2 102670 52
2012-02-13 08:21:17 51°13.636 2°56.018 3.8 79 3.2 102670 52
2012-02-13 08:21:23 51°13.636 2°56.018 3 18 3.2 102670 52
2012-02-13 08:21:27 51°13.636 2°56.018 3.1 74 3.2 102670 52
2012-02-13 08:21:32 51°13.636 2°56.018 3.3 32 3.2 102670 47
2012-02-13 08:21:38 51°13.636 2°56.019 3.4 75 3.2 102670 47
2012-02-13 08:21:42 51°13.636 2°56.018 3 33 3.2 102670 51
2012-02-13 08:21:47 51°13.636 2°56.019 1.9 80 3.2 102670 51
2012-02-13 08:21:52 51°13.636 2°56.019 2.7 32 3.1 102670 48
2012-02-13 08:21:57 51°13.636 2°56.019 2.7 78 3.1 102670 48
2012-02-13 08:22:02 51°13.636 2°56.018 2.5 33 3.1 102670 52
2012-02-13 08:22:07 51°13.636 2°56.018 3.6 75 3.1 102670 52
2012-02-13 08:22:12 51°13.636 2°56.019 3.8 21 3.1 102670 48
2012-02-13 08:22:18 51°13.636 2°56.019 3.3 78 3.1 102670 48
2012-02-13 08:22:22 51°13.636 2°56.019 3.1 29 3.1 102670 48
2012-02-13 08:22:27 51°13.636 2°56.019 3.8 74 3.1 102670 48
2012-02-13 08:22:32 51°13.636 2°56.019 2.5 37 3.1 102670 48
2012-02-13 08:22:38 51°13.636 2°56.019 3.3 79 3.1 102670 48
2012-02-13 08:22:42 51°13.636 2°56.019 3.6 21 3.1 102670 48
2012-02-13 08:22:47 51°13.636 2°56.019 3.7 75 3.1 102670 48
2012-02-13 08:22:52 51°13.636 2°56.019 3.7 35 3.1 102670 52
2012-02-13 08:22:58 51°13.636 2°56.019 4 75 3.1 102670 52
2012-02-13 08:23:02 51°13.636 2°56.019 4.1 20 3.1 102670 51
2012-02-13 08:23:07 51°13.636 2°56.019 2.9 77 3.1 102670 51
2012-02-13 08:23:12 51°13.636 2°56.019 3.3 35 3.1 102670 51
2012-02-13 08:23:17 51°13.636 2°56.019 3.2 81 3.1 102670 51
2012-02-13 08:23:22 51°13.636 2°56.019 3.2 19 3.1 102670 52
2012-02-13 08:23:27 51°13.636 2°56.019 3.4 75 3.1 102670 52
2012-02-13 08:23:32 51°13.636 2°56.019 3.3 33 3.1 102670 52
2012-02-13 08:23:37 51°13.636 2°56.02 3.4 79 3.1 102670 52
2012-02-13 08:23:42 51°13.636 2°56.019 3.9 30 3.1 102680 49
2012-02-13 08:23:47 51°13.636 2°56.019 4.1 73 3.1 102680 49
2012-02-13 08:23:52 51°13.636 2°56.019 2.9 32 3.1 102680 48
2012-02-13 08:23:57 51°13.636 2°56.02 3.2 81 3.1 102680 48
2012-02-13 08:24:02 51°13.636 2°56.02 4.7 32 3.1 102680 51
2012-02-13 08:24:07 51°13.636 2°56.019 4 80 3.1 102680 51
2012-02-13 08:24:12 51°13.636 2°56.019 4.2 36 3.1 102680 50
2012-02-13 08:24:17 51°13.636 2°56.019 4 77 3.1 102680 50
2012-02-13 08:24:22 51°13.636 2°56.019 4.1 35 3.1 102680 48
2012-02-13 08:24:27 51°13.636 2°56.019 4.6 81 3.1 102680 48
2012-02-13 08:24:32 51°13.636 2°56.019 3.7 25 3.1 102680 52
2012-02-13 08:24:37 51°13.636 2°56.019 3.2 78 3.1 102680 52
2012-02-13 08:24:42 51°13.636 2°56.019 3.1 18 3.1 102680 50
2012-02-13 08:24:47 51°13.636 2°56.019 2.6 73 3.1 102680 50
2012-02-13 08:24:52 51°13.636 2°56.019 2.7 32 3.1 102680 51
2012-02-13 08:24:57 51°13.636 2°56.019 3.3 80 3.1 102680 51
2012-02-13 08:25:02 51°13.636 2°56.019 4.4 33 3.1 102680 50
2012-02-13 08:25:07 51°13.636 2°56.019 4 79 3.1 102680 50
2012-02-13 08:25:12 51°13.636 2°56.019 3.3 29 3.1 102680 48
2012-02-13 08:25:17 51°13.636 2°56.019 3.2 78 3.1 102680 48
2012-02-13 08:25:22 51°13.636 2°56.019 3.9 26 3.1 102680 48
2012-02-13 08:25:27 51°13.636 2°56.019 3.8 75 3.1 102680 48
2012-02-13 08:25:32 51°13.636 2°56.019 4.3 36 3 102680 52
2012-02-13 08:25:37 51°13.636 2°56.019 4.2 79 3 102680 52
2012-02-13 08:25:42 51°13.635 2°56.019 2.2 21 3.1 102680 52
2012-02-13 08:25:47 51°13.635 2°56.019 3.1 81 3.1 102680 52
2012-02-13 08:25:52 51°13.635 2°56.019 3.2 35 3 102680 52
2012-02-13 08:25:57 51°13.635 2°56.019 3.9 79 3 102680 52
2012-02-13 08:26:02 51°13.635 2°56.019 4.2 30 3 102680 52
2012-02-13 08:26:07 51°13.635 2°56.019 3.7 76 3 102680 52
2012-02-13 08:26:12 51°13.635 2°56.019 3.9 37 3 102680 52
2012-02-13 08:26:17 51°13.635 2°56.019 3.8 79 3 102680 52
2012-02-13 08:26:22 51°13.635 2°56.019 4 33 3 102680 52
2012-02-13 08:26:27 51°13.635 2°56.02 3.9 80 3 102680 52
2012-02-13 08:26:32 51°13.635 2°56.019 4.3 35 3.1 102680 52
2012-02-13 08:26:37 51°13.635 2°56.019 3.3 81 3.1 102680 52
2012-02-13 08:26:42 51°13.635 2°56.019 3.5 28 3 102680 51
2012-02-13 08:26:47 51°13.635 2°56.019 3.8 75 3 102680 51
2012-02-13 08:26:52 51°13.635 2°56.019 4 33 3.1 102680 51
2012-02-13 08:26:57 51°13.635 2°56.02 3.3 78 3.1 102680 51
2012-02-13 08:27:02 51°13.635 2°56.02 3.8 37 3 102680 49
2012-02-13 08:27:07 51°13.635 2°56.019 3.9 80 3 102680 49
2012-02-13 08:27:12 51°13.635 2°56.019 3.8 37 3.1 102680 52
2012-02-13 08:27:17 51°13.635 2°56.019 3.7 79 3.1 102680 52
2012-02-13 08:27:22 51°13.635 2°56.019 3.5 21 3 102680 51
2012-02-13 08:27:27 51°13.635 2°56.019 3.1 81 3 102680 51
2012-02-13 08:27:32 51°13.635 2°56.019 3.2 33 3 102680 48
2012-02-13 08:27:37 51°13.635 2°56.019 4.3 79 3 102680 48
2012-02-13 08:27:42 51°13.635 2°56.019 3.7 27 3.1 102680 48
2012-02-13 08:27:47 51°13.635 2°56.019 4.1 80 3.1 102680 48
2012-02-13 08:27:52 51°13.635 2°56.019 3.7 35 3.1 102680 49
2012-02-13 08:27:57 51°13.635 2°56.019 4.8 73 3.1 102680 49
2012-02-13 08:28:02 51°13.635 2°56.019 4.2 21 3.1 102680 50
2012-02-13 08:28:07 51°13.635 2°56.019 5 74 3.1 102680 50
2012-02-13 08:28:12 51°13.635 2°56.019 4.7 36 3.1 102680 52
2012-02-13 08:28:17 51°13.635 2°56.019 3.9 76 3.1 102680 52
2012-02-13 08:28:22 51°13.635 2°56.019 4.4 30 3.1 102680 51
2012-02-13 08:28:27 51°13.635 2°56.019 4.1 78 3.1 102680 51
2012-02-13 08:28:32 51°13.635 2°56.019 3.2 36 3.1 102680 49
2012-02-13 08:28:37 51°13.635 2°56.019 4.7 79 3.1 102680 49
2012-02-13 08:28:42 51°13.635 2°56.019 4.2 29 3.1 102680 52
2012-02-13 08:28:47 51°13.636 2°56.019 3.8 77 3.1 102680 52
2012-02-13 08:28:52 51°13.636 2°56.018 4.7 36 3.1 102680 51
2012-02-13 08:28:57 51°13.635 2°56.019 4.2 77 3.1 102680 51
2012-02-13 08:29:02 51°13.635 2°56.019 4.7 35 3.1 102680 48
2012-02-13 08:29:07 51°13.636 2°56.019 5.2 74 3.1 102680 48
2012-02-13 08:29:12 51°13.636 2°56.019 4.5 23 3.1 102680 52
2012-02-13 08:29:17 51°13.636 2°56.019 4.6 75 3.1 102680 52
2012-02-13 08:29:22 51°13.636 2°56.019 5 27 3.1 102680 48
2012-02-13 08:29:27 51°13.636 2°56.019 4.8 80 3.1 102680 48
2012-02-13 08:29:32 51°13.636 2°56.018 3.4 19 3.1 102680 47
2012-02-13 08:29:37 51°13.636 2°56.018 3.2 79 3.1 102680 47
2012-02-13 08:29:42 51°13.636 2°56.018 3.6 25 3.1 102680 48
2012-02-13 08:29:47 51°13.636 2°56.018 3.6 77 3.1 102680 48
2012-02-13 08:29:52 51°13.636 2°56.018 4.3 35 3.1 102680 52
2012-02-13 08:29:57 51°13.636 2°56.018 4.1 75 3.1 102680 52
2012-02-13 08:30:02 51°13.636 2°56.018 4.3 22 3.1 102680 51
2012-02-13 08:30:07 51°13.636 2°56.018 4.4 79 3.1 102680 51
2012-02-13 08:30:12 51°13.636 2°56.018 5 31 3.1 102680 48
2012-02-13 08:30:17 51°13.636 2°56.018 5.5 75 3.1 102680 48
2012-02-13 08:30:22 51°13.636 2°56.018 4.3 22 3.1 102680 49
2012-02-13 08:30:27 51°13.636 2°56.018 4.4 75 3.1 102680 49
2012-02-13 08:30:32 51°13.636 2°56.018 5 33 3.1 102680 48
2012-02-13 08:30:37 51°13.636 2°56.018 3.8 79 3.1 102680 48
2012-02-13 08:30:42 51°13.636 2°56.018 3.4 36 3.1 102680 48
2012-02-13 08:30:47 51°13.636 2°56.018 3.2 80 3.1 102680 48
2012-02-13 08:30:52 51°13.636 2°56.018 3.6 32 3.1 102680 48
2012-02-13 08:30:57 51°13.636 2°56.018 2.5 75 3.1 102680 48
2012-02-13 08:31:02 51°13.636 2°56.018 5.4 21 3.1 102680 52
2012-02-13 08:31:07 51°13.636 2°56.018 5 75 3.1 102680 52
2012-02-13 08:31:12 51°13.636 2°56.018 5.2 31 3.1 102680 49
2012-02-13 08:31:17 51°13.636 2°56.019 4.5 80 3.1 102680 49
2012-02-13 08:31:22 51°13.636 2°56.019 4.4 31 3.1 102680 51
2012-02-13 08:31:27 51°13.636 2°56.019 4.1 78 3.1 102680 51
2012-02-13 08:31:32 51°13.636 2°56.018 5.6 19 3.1 102680 51
2012-02-13 08:31:37 51°13.636 2°56.018 4.9 80 3.1 102680 51
2012-02-13 08:31:42 51°13.636 2°56.018 5.2 23 3.1 102680 48
2012-02-13 08:31:47 51°13.636 2°56.018 4.3 76 3.1 102680 48
2012-02-13 08:31:52 51°13.636 2°56.018 5.5 39 3.1 102680 48
2012-02-13 08:31:57 51°13.636 2°56.018 4.4 79 3.1 102680 48
2012-02-13 08:32:02 51°13.636 2°56.018 4.5 22 3.1 102680 48
2012-02-13 08:32:07 51°13.636 2°56.018 4.4 80 3.1 102680 48
2012-02-13 08:32:12 51°13.636 2°56.018 3.8 37 3.1 102680 47
2012-02-13 08:32:17 51°13.636 2°56.018 3.4 79 3.1 102680 47
2012-02-13 08:32:22 51°13.636 2°56.018 3.8 21 3.1 102680 48
2012-02-13 08:32:27 51°13.636 2°56.018 4.5 78 3.1 102680 48
2012-02-13 08:32:32 51°13.636 2°56.018 3.9 35 3.1 102680 48
2012-02-13 08:32:37 51°13.636 2°56.017 4.3 75 3.1 102680 48
2012-02-13 08:32:42 51°13.636 2°56.017 3.3 27 3.1 102680 48
2012-02-13 08:32:47 51°13.636 2°56.017 4.2 78 3.1 102680 48
2012-02-13 08:32:52 51°13.636 2°56.017 4.7 32 3.1 102670 52
2012-02-13 08:32:57 51°13.636 2°56.018 5 79 3.1 102670 52
2012-02-13 08:33:02 51°13.636 2°56.017 3.9 30 3.1 102680 50
2012-02-13 08:33:07 51°13.636 2°56.017 4 78 3.1 102680 50
2012-02-13 08:33:12 51°13.636 2°56.018 4.6 38 3 102670 51
2012-02-13 08:33:17 51°13.636 2°56.017 4.3 81 3 102670 51
2012-02-13 08:33:22 51°13.636 2°56.017 4.8 32 3.1 102670 51
2012-02-13 08:33:27 51°13.636 2°56.017 4.7 74 3.1 102670 51
2012-02-13 08:33:32 51°13.637 2°56.017 4.6 20 3.1 102680 51
2012-02-13 08:33:37 51°13.636 2°56.017 4.6 72 3.1 102680 51
2012-02-13 08:33:42 51°13.636 2°56.017 5.4 23 3.1 102680 49
2012-02-13 08:33:47 51°13.636 2°56.017 4.9 80 3.1 102680 49
2012-02-13 08:33:52 51°13.636 2°56.017 5.5 37 3.1 102680 51
2012-02-13 08:33:57 51°13.636 2°56.017 4.1 74 3.1 102680 51
2012-02-13 08:34:02 51°13.637 2°56.017 3.9 20 3.1 102670 49
2012-02-13 08:34:07 51°13.636 2°56.017 3.7 74 3.1 102670 49
2012-02-13 08:34:12 51°13.636 2°56.017 3.2 36 3.1 102670 49
2012-02-13 08:34:17 51°13.636 2°56.017 5.1 76 3.1 102670 49
2012-02-13 08:34:22 51°13.636 2°56.018 3.9 20 3.1 102670 51
2012-02-13 08:34:27 51°13.636 2°56.018 3.7 79 3.1 102670 51
2012-02-13 08:34:32 51°13.636 2°56.018 3.4 32 3.1 102670 52
2012-02-13 08:34:37 51°13.636 2°56.018 3.3 78 3.1 102670 52
2012-02-13 08:34:42 51°13.636 2°56.018 4.6 25 3.1 102670 48
2012-02-13 08:34:47 51°13.636 2°56.018 4 80 3.1 102670 48
2012-02-13 08:34:52 51°13.636 2°56.018 3.6 36 3.1 102670 49
2012-02-13 08:34:57 51°13.636 2°56.018 3.8 79 3.1 102670 49
2012-02-13 08:35:02 51°13.636 2°56.018 4.1 24 3.1 102670 50
2012-02-13 08:35:07 51°13.636 2°56.018 4.6 74 3.1 102670 50
2012-02-13 08:35:12 51°13.637 2°56.018 4.5 33 3.1 102670 48
2012-02-13 08:35:17 51°13.636 2°56.018 3.1 75 3.1 102670 48
2012-02-13 08:35:22 51°13.636 2°56.018 3.9 32 3.1 102670 49
2012-02-13 08:35:27 51°13.636 2°56.018 3.7 78 3.1 102670 49
2012-02-13 08:35:32 51°13.636 2°56.018 2.4 36 3.1 102670 48
2012-02-13 08:35:37 51°13.636 2°56.018 3.8 77 3.1 102670 48
2012-02-13 08:35:42 51°13.637 2°56.018 3.2 18 3.1 102680 48
2012-02-13 08:35:47 51°13.636 2°56.018 4.4 80 3.1 102680 48
2012-02-13 08:35:52 51°13.636 2°56.018 3.6 20 3.1 102680 52
2012-02-13 08:35:57 51°13.637 2°56.018 3.4 75 3.1 102680 52
2012-02-13 08:36:02 51°13.637 2°56.018 3 25 3.1 102680 52
2012-02-13 08:36:07 51°13.637 2°56.018 3.2 75 3.1 102680 52
2012-02-13 08:36:12 51°13.636 2°56.018 4.1 27 3.1 102680 49
2012-02-13 08:36:17 51°13.636 2°56.018 3.3 79 3.1 102680 49
2012-02-13 08:36:22 51°13.636 2°56.018 3 23 3.1 102670 52
2012-02-13 08:36:27 51°13.636 2°56.018 4.5 79 3.1 102670 52
2012-02-13 08:36:32 51°13.636 2°56.018 3.3 37 3.1 102680 49
2012-02-13 08:36:37 51°13.636 2°56.018 3.2 74 3.1 102680 49
2012-02-13 08:36:42 51°13.636 2°56.018 4.6 25 3.1 102680 49
2012-02-13 08:36:47 51°13.636 2°56.018 4.3 78 3.1 102680 49
2012-02-13 08:36:52 51°13.636 2°56.018 3.9 31 3.1 102680 52
2012-02-13 08:36:57 51°13.636 2°56.018 4.2 75 3.1 102680 52
2012-02-13 08:37:02 51°13.636 2°56.018 4 18 3.1 102680 48
2012-02-13 08:37:07 51°13.636 2°56.018 3.8 81 3.1 102680 48
2012-02-13 08:37:12 51°13.636 2°56.018 2.6 30 3.2 102680 51
2012-02-13 08:37:17 51°13.636 2°56.018 4.5 81 3.2 102680 51
2012-02-13 08:37:22 51°13.636 2°56.018 4.5 21 3.1 102680 48
2012-02-13 08:37:27 51°13.636 2°56.018 4.1 78 3.1 102680 48
2012-02-13 08:37:32 51°13.636 2°56.018 4 33 3.1 102680 49
2012-02-13 08:37:37 51°13.636 2°56.018 3.3 80 3.1 102680 49
2012-02-13 08:37:42 51°13.636 2°56.018 3.3 32 3.2 102680 49
2012-02-13 08:37:47 51°13.636 2°56.018 3.3 74 3.2 102680 49
2012-02-13 08:37:52 51°13.636 2°56.018 3.5 38 3.2 102680 51
2012-02-13 08:37:57 51°13.636 2°56.018 3.3 80 3.2 102680 51
2012-02-13 08:38:02 51°13.636 2°56.018 4.5 30 3.2 102680 48
2012-02-13 08:38:07 51°13.636 2°56.018 3.4 76 3.2 102680 48
2012-02-13 08:38:12 51°13.636 2°56.018 3.7 20 3.2 102680 49
2012-02-13 08:38:17 51°13.636 2°56.018 4.2 76 3.2 102680 49
2012-02-13 08:38:22 51°13.636 2°56.018 3.5 32 3.2 102680 52
2012-02-13 08:38:27 51°13.636 2°56.018 3.2 77 3.2 102680 52
2012-02-13 08:38:32 51°13.636 2°56.018 3.9 21 3.2 102680 50
2012-02-13 08:38:37 51°13.636 2°56.018 3.4 74 3.2 102680 50
2012-02-13 08:38:42 51°13.637 2°56.018 3.2 32 3.2 102680 49
2012-02-13 08:38:47 51°13.637 2°56.018 2.6 79 3.2 102680 49
2012-02-13 08:38:51 51°13.637 2°56.018 3 35 3.2 102680 52
2012-02-13 08:38:57 51°13.636 2°56.019 2.7 82 3.2 102680 52
2012-02-13 08:39:02 51°13.636 2°56.019 3.2 24 3.2 102680 48
2012-02-13 08:39:07 51°13.637 2°56.018 3.5 78 3.2 102680 48
2012-02-13 08:39:12 51°13.637 2°56.018 2.3 29 3.2 102680 48
2012-02-13 08:39:17 51°13.636 2°56.018 3.3 81 3.2 102680 48
2012-02-13 08:39:22 51°13.636 2°56.019 3.4 19 3.2 102680 48
2012-02-13 08:39:27 51°13.637 2°56.018 2.6 74 3.2 102680 48
2012-02-13 08:39:32 51°13.636 2°56.018 2.9 33 3.2 102680 52
2012-02-13 08:39:37 51°13.636 2°56.018 2.3 78 3.2 102680 52
2012-02-13 08:39:42 51°13.637 2°56.018 3.5 22 3.2 102680 48
2012-02-13 08:39:47 51°13.637 2°56.018 3.5 75 3.2 102680 48
2012-02-13 08:39:52 51°13.637 2°56.018 3.8 18 3.2 102680 51
2012-02-13 08:39:57 51°13.637 2°56.018 3 78 3.2 102680 51
2012-02-13 08:40:02 51°13.637 2°56.018 3.8 32 3.2 102680 49
2012-02-13 08:40:07 51°13.637 2°56.018 3.7 75 3.2 102680 49
2012-02-13 08:40:12 51°13.637 2°56.018 3.1 23 3.2 102680 47
2012-02-13 08:40:17 51°13.637 2°56.018 3.1 77 3.2 102680 47
2012-02-13 08:40:22 51°13.637 2°56.018 2.9 26 3.2 102680 51
2012-02-13 08:40:27 51°13.637 2°56.018 3.8 76 3.2 102680 51
2012-02-13 08:40:32 51°13.637 2°56.018 2.4 24 3.2 102680 51
2012-02-13 08:40:37 51°13.637 2°56.018 3 77 3.2 102680 51
2012-02-13 08:40:42 51°13.637 2°56.018 3.4 21 3.2 102680 48
2012-02-13 08:40:47 51°13.636 2°56.018 3.3 74 3.2 102680 48
2012-02-13 08:40:52 51°13.636 2°56.018 4.3 36 3.2 102680 48
2012-02-13 08:40:58 51°13.636 2°56.019 3.9 75 3.2 102680 48
2012-02-13 08:41:02 51°13.636 2°56.018 3.4 20 3.2 102680 48
2012-02-13 08:41:07 51°13.636 2°56.018 3.2 79 3.2 102680 48
2012-02-13 08:41:12 51°13.635 2°56.018 3.1 31 3.2 102680 51
2012-02-13 08:41:17 51°13.636 2°56.019 2.5 78 3.2 102680 51
2012-02-13 08:41:22 51°13.635 2°56.019 5 24 3.2 102680 48
2012-02-13 08:41:27 51°13.635 2°56.019 4.5 80 3.2 102680 48
2012-02-13 08:41:32 51°13.635 2°56.019 3.9 31 3.2 102680 51
2012-02-13 08:41:37 51°13.635 2°56.019 2.9 76 3.2 102680 51
2012-02-13 08:41:43 51°13.635 2°56.019 4 27 3.2 102680 49
2012-02-13 08:41:47 51°13.635 2°56.019 3.4 77 3.2 102680 49
2012-02-13 08:41:52 51°13.636 2°56.019 2.7 31 3.2 102670 52
2012-02-13 08:41:57 51°13.635 2°56.019 2.7 78 3.2 102670 52
2012-02-13 08:42:02 51°13.635 2°56.019 3.5 34 3.2 102680 52
2012-02-13 08:42:07 51°13.635 2°56.019 2.7 81 3.2 102680 52
2012-02-13 08:42:12 51°13.635 2°56.019 2.4 19 3.2 102670 48
2012-02-13 08:42:17 51°13.635 2°56.019 3.2 75 3.2 102670 48
2012-02-13 08:42:22 51°13.635 2°56.019 3.3 37 3.2 102680 52
2012-02-13 08:42:28 51°13.635 2°56.019 4.4 78 3.2 102680 52
2012-02-13 08:42:32 51°13.636 2°56.019 3.6 17 3.1 102680 51
2012-02-13 08:42:37 51°13.635 2°56.019 3.6 79 3.1 102680 51
2012-02-13 08:42:42 51°13.635 2°56.019 4.1 27 3.1 102670 52
2012-02-13 08:42:47 51°13.635 2°56.019 3.9 78 3.1 102670 52
2012-02-13 08:42:52 51°13.635 2°56.019 3 21 3.1 102670 47
2012-02-13 08:42:57 51°13.635 2°56.019 3.8 78 3.1 102670 47
2012-02-13 08:43:02 51°13.635 2°56.019 3.9 21 3.2 102680 48
2012-02-13 08:43:07 51°13.635 2°56.02 3.2 79 3.2 102680 48
2012-02-13 08:43:12 51°13.635 2°56.019 3.2 32 3.2 102670 48
2012-02-13 08:43:17 51°13.635 2°56.019 3.3 75 3.2 102670 48
2012-02-13 08:43:22 51°13.635 2°56.019 3 22 3.1 102670 50
2012-02-13 08:43:27 51°13.635 2°56.019 3.5 75 3.1 102670 50
2012-02-13 08:43:32 51°13.635 2°56.019 3 36 3.1 102670 48
2012-02-13 08:43:37 51°13.635 2°56.019 3.1 75 3.1 102670 48
2012-02-13 08:43:42 51°13.635 2°56.019 4.2 21 3.1 102670 51
2012-02-13 08:43:47 51°13.635 2°56.019 3.8 74 3.1 102670 51
2012-02-13 08:43:52 51°13.635 2°56.019 3.4 30 3.1 102670 51
2012-02-13 08:43:57 51°13.635 2°56.019 2.9 79 3.1 102670 51
2012-02-13 08:44:02 51°13.635 2°56.019 3.4 22 3.1 102670 51
2012-02-13 08:44:07 51°13.635 2°56.019 2.3 75 3.1 102670 51
2012-02-13 08:44:12 51°13.636 2°56.019 2.9 37 3.1 102670 51
2012-02-13 08:44:17 51°13.635 2°56.019 4.1 79 3.1 102670 51
2012-02-13 08:44:22 51°13.636 2°56.019 4.8 24 3.1 102670 48
2012-02-13 08:44:27 51°13.635 2°56.019 3.2 80 3.1 102670 48
2012-02-13 08:44:32 51°13.635 2°56.019 3.7 21 3.1 102670 51
2012-02-13 08:44:37 51°13.636 2°56.019 4.1 78 3.1 102670 51
2012-02-13 08:44:42 51°13.635 2°56.019 3.7 33 3.1 102670 48
2012-02-13 08:44:47 51°13.635 2°56.019 3.1 76 3.1 102670 48
2012-02-13 08:44:52 51°13.635 2°56.019 3.5 20 3.1 102670 48
2012-02-13 08:44:57 51°13.636 2°56.019 2.5 73 3.1 102670 48
2012-02-13 08:45:02 51°13.636 2°56.019 4.4 21 3.1 102670 48
2012-02-13 08:45:07 51°13.635 2°56.019 2.9 77 3.1 102670 48
2012-02-13 08:45:13 51°13.635 2°56.019 3.8 26 3.1 102670 48
2012-02-13 08:45:17 51°13.635 2°56.019 4.3 80 3.1 102670 48
2012-02-13 08:45:22 51°13.635 2°56.019 3 30 3.1 102670 50
2012-02-13 08:45:27 51°13.635 2°56.019 3.9 76 3.1 102670 50
2012-02-13 08:45:32 51°13.635 2°56.018 4.3 22 3.1 102670 47
2012-02-13 08:45:37 51°13.635 2°56.019 3.2 82 3.1 102670 47
2012-02-13 08:45:42 51°13.635 2°56.019 4 18 3.1 102670 48
2012-02-13 08:45:47 51°13.635 2°56.019 4 78 3.1 102670 48
2012-02-13 08:45:52 51°13.635 2°56.019 2.9 29 3.1 102670 48
2012-02-13 08:45:57 51°13.635 2°56.019 2.1 77 3.1 102670 48
2012-02-13 08:46:02 51°13.636 2°56.018 2.6 25 3.1 102660 51
2012-02-13 08:46:07 51°13.635 2°56.018 2.3 77 3.1 102660 51
2012-02-13 08:46:12 51°13.635 2°56.019 2.3 21 3.1 102670 51
2012-02-13 08:46:17 51°13.635 2°56.018 2.9 80 3.1 102670 51
2012-02-13 08:46:22 51°13.635 2°56.018 2.9 20 3.1 102670 48
2012-02-13 08:46:27 51°13.635 2°56.018 3 76 3.1 102670 48
2012-02-13 08:46:32 51°13.635 2°56.018 3.4 21 3.1 102660 48
2012-02-13 08:46:37 51°13.635 2°56.018 4.3 73 3.1 102660 48
2012-02-13 08:46:42 51°13.635 2°56.019 3.5 26 3.1 102660 51
2012-02-13 08:46:48 51°13.635 2°56.019 3 78 3.1 102660 51
2012-02-13 08:46:52 51°13.635 2°56.018 3.8 23 3.1 102670 51
2012-02-13 08:46:57 51°13.635 2°56.018 3 76 3.1 102670 51
2012-02-13 08:47:02 51°13.635 2°56.018 2.2 19 3.1 102660 48
2012-02-13 08:47:07 51°13.635 2°56.019 1.7 77 3.1 102660 48
2012-02-13 08:47:12 51°13.635 2°56.018 2.5 19 3.1 102670 48
2012-02-13 08:47:17 51°13.635 2°56.018 2.1 76 3.1 102670 48
2012-02-13 08:47:22 51°13.635 2°56.018 2.2 22 3.1 102660 48
2012-02-13 08:47:27 51°13.635 2°56.018 3.1 73 3.1 102660 48
2012-02-13 08:47:32 51°13.635 2°56.019 3.2 19 3.1 102660 51
2012-02-13 08:47:37 51°13.635 2°56.019 3.6 79 3.1 102660 51
2012-02-13 08:47:41 51°13.635 2°56.019 3.7 22 3.1 102660 47
2012-02-13 08:47:47 51°13.635 2°56.019 3.1 76 3.1 102660 47
2012-02-13 08:47:52 51°13.635 2°56.019 3.7 25 3.1 102660 49
2012-02-13 08:47:58 51°13.635 2°56.019 2.5 78 3.1 102660 49
2012-02-13 08:48:02 51°13.634 2°56.019 2.7 25 3.1 102660 48
2012-02-13 08:48:07 51°13.635 2°56.019 2.7 75 3.1 102660 48
2012-02-13 08:48:12 51°13.635 2°56.019 2.6 27 3.1 102660 48
2012-02-13 08:48:18 51°13.635 2°56.019 3 49 3.1 102660 48
2012-02-13 08:48:22 51°13.635 2°56.019 2.9 26 3.1 102660 48
2012-02-13 08:48:28 51°13.635 2°56.018 3.5 75 3.1 102660 48
2012-02-13 08:48:33 51°13.635 2°56.018 2.7 22 3.1 102660 49
2012-02-13 08:48:37 51°13.635 2°56.018 2.1 74 3.1 102660 49
2012-02-13 08:48:42 51°13.636 2°56.018 2.9 25 3.1 102660 48
2012-02-13 08:48:47 51°13.635 2°56.018 2.6 75 3.1 102660 48
2012-02-13 08:48:52 51°13.635 2°56.019 2.4 20 3.1 102660 48
2012-02-13 08:48:57 51°13.635 2°56.019 2.3 75 3.1 102660 48
2012-02-13 08:49:02 51°13.636 2°56.018 2.9 24 3.1 102650 48
2012-02-13 08:49:08 51°13.635 2°56.018 2.4 78 3.1 102650 48
2012-02-13 08:49:12 51°13.635 2°56.018 2.8 19 3.1 102650 51
2012-02-13 08:49:17 51°13.636 2°56.018 3 80 3.1 102650 51
2012-02-13 08:49:22 51°13.636 2°56.018 2.5 24 3.1 102660 47
2012-02-13 08:49:28 51°13.636 2°56.018 2.2 72 3.1 102660 47
2012-02-13 08:49:33 51°13.636 2°56.018 3.7 27 3.1 102650 51
2012-02-13 08:49:37 51°13.636 2°56.018 2.5 79 3.1 102650 51
2012-02-13 08:49:42 51°13.636 2°56.018 1.7 18 3.1 102650 51
2012-02-13 08:49:47 51°13.636 2°56.019 3.4 79 3.1 102650 51
2012-02-13 08:49:53 51°13.636 2°56.018 3.4 21 3.1 102650 48
2012-02-13 08:49:57 51°13.636 2°56.018 5.1 80 3.1 102650 48
2012-02-13 08:50:02 51°13.636 2°56.018 4.2 21 3.1 102650 51
2012-02-13 08:50:07 51°13.636 2°56.018 2.8 80 3.1 102650 51
2012-02-13 08:50:12 51°13.636 2°56.018 3.9 18 3.1 102650 48
2012-02-13 08:50:17 51°13.636 2°56.018 3.5 79 3.1 102650 48
2012-02-13 08:50:22 51°13.636 2°56.019 4.4 23 3.2 102650 48
2012-02-13 08:50:27 51°13.636 2°56.019 4 75 3.2 102650 48
2012-02-13 08:50:32 51°13.636 2°56.019 4.7 22 3.2 102650 49
2012-02-13 08:50:37 51°13.636 2°56.018 3.9 79 3.2 102650 49
2012-02-13 08:50:42 51°13.636 2°56.018 5.1 25 3.2 102650 51
2012-02-13 08:50:47 51°13.636 2°56.019 4.8 76 3.2 102650 51
2012-02-13 08:50:52 51°13.636 2°56.019 3 20 3.2 102650 49
2012-02-13 08:50:57 51°13.636 2°56.018 3.7 74 3.2 102650 49
2012-02-13 08:51:02 51°13.636 2°56.018 3.2 25 3.2 102650 48
2012-02-13 08:51:07 51°13.636 2°56.018 3.4 81 3.2 102650 48
2012-02-13 08:51:12 51°13.636 2°56.018 2.4 27 3.2 102650 48
2012-02-13 08:51:18 51°13.636 2°56.018 3 76 3.2 102650 48
2012-02-13 08:51:22 51°13.636 2°56.018 3.6 20 3.2 102650 48
2012-02-13 08:51:27 51°13.636 2°56.018 2.8 74 3.2 102650 48
2012-02-13 08:51:32 51°13.635 2°56.018 2.8 26 3.2 102650 48
2012-02-13 08:51:37 51°13.636 2°56.018 3.4 -999 3.2 102650 48
2012-02-13 08:51:42 51°13.636 2°56.018 2.7 20 3.2 102650 51
2012-02-13 08:51:46 51°13.635 2°56.018 2.6 76 3.2 102650 51
2012-02-13 08:51:52 51°13.635 2°56.018 2.7 19 3.2 102650 48
2012-02-13 08:51:57 51°13.636 2°56.018 2.8 79 3.2 102650 48
2012-02-13 08:52:03 51°13.635 2°56.018 3.3 21 3.2 102650 48
2012-02-13 08:52:07 51°13.635 2°56.019 3.8 76 3.2 102650 48
2012-02-13 08:52:12 51°13.635 2°56.019 3 24 3.2 102640 51
2012-02-13 08:52:17 51°13.635 2°56.019 2.8 81 3.2 102640 51
2012-02-13 08:52:22 51°13.635 2°56.018 2.9 20 3.2 102650 50
2012-02-13 08:52:27 51°13.635 2°56.018 2.8 80 3.2 102650 50
2012-02-13 08:52:32 51°13.635 2°56.019 2.7 21 3.2 102640 47
2012-02-13 08:52:37 51°13.635 2°56.019 3.2 58 3.2 102640 47
2012-02-13 08:52:42 51°13.635 2°56.019 0.3 21 3.2 102650 50
2012-02-13 08:52:47 51°13.635 2°56.019 0.1 77 3.2 102650 50
2012-02-13 08:52:52 51°13.635 2°56.019 3.6 27 3.2 102640 51
2012-02-13 08:52:57 51°13.635 2°56.019 3.3 78 3.2 102640 51
2012-02-13 08:53:02 51°13.635 2°56.019 2.8 21 3.3 102640 48
2012-02-13 08:53:07 51°13.635 2°56.019 3.3 81 3.3 102640 48
2012-02-13 08:53:12 51°13.635 2°56.019 3.1 20 3.3 102640 47
2012-02-13 08:53:17 51°13.635 2°56.019 2.3 79 3.3 102640 47
2012-02-13 08:53:22 51°13.635 2°56.019 2.6 19 3.3 102640 51
2012-02-13 08:53:28 51°13.635 2°56.019 3.9 74 3.3 102640 51
2012-02-13 08:53:32 51°13.635 2°56.019 3.1 27 3.3 102640 47
2012-02-13 08:53:37 51°13.635 2°56.019 2.5 77 3.3 102640 47
2012-02-13 08:53:42 51°13.635 2°56.018 3.3 23 3.3 102640 50
2012-02-13 08:53:47 51°13.635 2°56.018 2.8 56 3.3 102640 50
2012-02-13 08:53:52 51°13.635 2°56.019 2.5 26 3.3 102640 50
2012-02-13 08:53:57 51°13.635 2°56.019 3.7 78 3.3 102640 50
2012-02-13 08:54:02 51°13.635 2°56.019 3.5 21 3.3 102640 48
2012-02-13 08:54:08 51°13.635 2°56.018 2.9 80 3.3 102640 48
2012-02-13 08:54:12 51°13.635 2°56.018 3.6 21 3.3 102640 50
2012-02-13 08:54:17 51°13.635 2°56.018 3.5 76 3.3 102640 50
2012-02-13 08:54:22 51°13.635 2°56.018 3.4 22 3.3 102630 49
2012-02-13 08:54:26 51°13.635 2°56.018 3.4 75 3.3 102630 49
2012-02-13 08:54:32 51°13.635 2°56.018 3.3 20 3.3 102630 48